Regional Weather Roundup
Issued by NWS Portland, ME

Home | Current Version | Previous Version | Text Only | Print | Product List | Glossary On
Versions: 1 2 3 4 5 6 7 8 9 10 11 12 13 14 15 16 17 18 19 20 21 22 23 24 25 26 27 28 29 30 31 32 33 34 35 36 37 38 39 40 41 42 43 44 45 46 47 48 49 50
602
ASUS41 KGYX 180410
RWRGYX
WEATHER ROUNDUP FOR MAINE AND NEW HAMPSHIRE
NATIONAL WEATHER SERVICE GRAY ME
1100 PM EST TUE JAN 17 2017

MEZ002-005-006-010-012-015-018-020-021-024-026-027-029-180500-
MAINE

CITY           SKY/WX    TMP DP  RH WIND       PRES   REMARKS
PORTLAND       CLOUDY    36  25  64 E9        30.18F
SANFORD        LGT SNOW  33  31  92 E5        30.15F FOG
BAR HARBOR     CLOUDY    22   8  55 N5        30.26F
WISCASSET      CLOUDY    32  17  54 E8        30.21F
ROCKLAND       CLOUDY    29  15  56 NE14      30.22F WCI  18
FRYEBURG       LGT SNOW  29  24  82 E3        30.17S
LEWISTONAUBURN CLOUDY    30  18  60 NE7       30.19F
AUGUSTA        CLOUDY    27  12  53 E9        30.21F
WATERVILLE     CLOUDY    25  13  60 NE7       30.20F
BANGOR         MOCLDY    21   5  50 NE5       30.27S
GREENVILLE       N/A     14   0  53 SE9       30.14F
MILLINOCKET    PTCLDY     9   2  73 CALM      30.28F
HOULTON        CLOUDY    -1  -4  87 CALM      30.27S
PRESQUE ISLE   CLOUDY    -3  -7  82 CALM      30.29S
FRENCHVILLE    CLOUDY     5  -2  72 E6        30.23F
CARIBOU        CLOUDY     5  -3  69 NE6       30.26F
$$

NHZ002-005-008-009-011-012-014-180500-
NEW HAMPSHIRE

CITY           SKY/WX    TMP DP  RH WIND       PRES   REMARKS
PORTSMOUTH     LGT SNOW  35  33  92 E7        30.12F FOG
ROCHESTER      LGT SNOW  33  31  92 E6        30.13F VSB 1
NASHUA         LGT SNOW  32  32 100 E3        30.11F FOG
MANCHESTER     LGT SNOW  33  31  92 E6        30.10F VSB 1
CONCORD        LGT SNOW  33  31  92 E3        30.11F VSB 3/4
PLYMOUTH       LGT SNOW  31  30  94 E6        30.12F
BERLIN         CLOUDY    30  17  58 S8        30.09F
WHITEFIELD     LGT SNOW  30  24  78 S10       30.06R
JAFFREY        LGT SNOW  33  30  88 VRB5      30.06S FOG
KEENE          LGT SNOW N/A N/A N/A CALM      30.08F
LEBANON        LGT SNOW  33  32  96 NE3       30.08F FOG
MT WASHINGTON  SNOW      14  14 100 SE28        N/A  VSB 1/16WCI  -6
$$

VTZ005-007-008-180500-
VERMONT

CITY           SKY/WX    TMP DP  RH WIND       PRES   REMARKS
ST JOHNSBURY     N/A     31  30  96 MISG      30.06S
MONTPELIER     LGT SNOW  30  29  96 SE10      30.06F FOG
BURLINGTON     LGT SNOW  33  32  96 S5        30.00F FOG
$$

MAZ007-012-024-CTZ003-RIZ002-NYZ038-NYZ072-180500-
SOUTHERN NEW ENGLAND AND NY

CITY           SKY/WX    TMP DP  RH WIND       PRES   REMARKS
BOSTON         LGT SNOW  36  35  96 E20G28    30.12F FOG
WORCESTER      FRZ RAIN  32  30  92 E7        30.04F VSB 1/4
NANTUCKET      RAIN      41  37  86 E17       30.07F
PROVIDENCE     LGT RAIN  39  37  92 E8        30.08F FOG
HARTFORD       LGTSLEET  34  33  96 N6        30.07F FOG
ALBANY         LGTSLEET  34  31  88 S9        30.01F FOG
NEW YORK CITY  CLOUDY    39  37  92 NE14      29.98F FOG
$$

ANZ081-ANZ082-ANZ150-NHZ014-MEZ023>029-180500-
COASTAL MARINE OBSERVATIONS

STATION/POSITION TIME  TEMP    WIND        PRES    WAVE
                       AIR SEA DIR/SP/G            HT/PER
                 (UTC) (F)     (DEG/KT/KT) (MB)    (FT/S)
MOUNT DESERT ROC 0400   34                 1023.3F
MATINICUS ROCK   0300   35      90/ 20/ 21 1022.7F
ISLE OF SHOALS   0300   36     100/ 22/ 23 1020.1F
CASHES LEDGE BUO 0350   37 46  100/ 17/ 21 1021.9F   3/ 4
GEORGES BANK BUO 0350   39 42              1020.7F   4/ 6
$$

.............KEY..............
   WCI - WIND CHILL
   TC  - TEMPERATURE IN CELSIUS
   VSB - VISIBILITY IN MILES
   HX  - HEAT INDEX
   FAIR- INDICATES FEW OR NO CLOUDS BELOW 12,000 FT, WITH NO
         SIGNIFICANT WEATHER AND/OR OBSTRUCTIONS TO VISIBILITY.






USA.gov is the U.S. government's official web portal to all federal, state and local government web resources and services.